User: anonymous   Login
Location: Plymouth
(43.7570°N, 71.6890°W)
Time: 13:04:08
(UTC-04:00)
Language:

Meteor 1-28 Rocket - Orbit

View from above orbital plane
View from above orbital plane
View from above satellite
View from above satellite

Ground track
Ground track

The orbit data is extracted from the following two-line orbital elements,

1 10114U 77057B   16243.17386366  .00000669  00000-0  37643-4 0  9997
2 10114  97.2015  74.1989 0012489 254.8110 105.1743 15.16366316139446
Epoch (UTC): 30 August 2016 04:10:21
Eccentricity: 0.0012489
inclination: 97.2015°
perigee height: 508 km
apogee height: 525 km
right ascension of ascending node: 74.1989°
argument of perigee: 254.8110°
revolutions per day: 15.16366316
mean anomaly at epoch: 105.1743°
orbit number at epoch: 13944

The dashed part of the orbit path shows where the satellite is in the earth's shadow,  

DLR